AO-07 1 07530U 74089B 24186.63531819 -.00000032 00000-0 86636-4 0 9999 2 07530 101.9779 181.4468 0012576 52.1702 61.9504 12.53676646271226 UO-11 1 14781U 84021B 24186.58801396 .00002163 00000-0 24846-3 0 9996 2 14781 97.7051 155.3383 0008793 30.2468 329.9254 14.86813743151073 AO-27 1 22825U 93061C 24186.74411632 .00000189 00000-0 89820-4 0 9996 2 22825 98.7874 239.7020 0008954 34.5625 325.6137 14.30515801605396 FO-29 1 24278U 96046B 24186.56950155 -.00000030 00000-0 33312-5 0 9996 2 24278 98.5804 118.9472 0350640 143.1022 219.4803 13.53191795376784 NOAA-15 1 25338U 98030A 24186.84080322 .00000348 00000-0 16195-3 0 9999 2 25338 98.5675 213.5984 0009062 273.4426 86.5718 14.26619082359955 GO-32 1 25397U 98043D 24186.52159165 .00000130 00000-0 76516-4 0 9998 2 25397 98.9223 153.5039 0002391 99.9413 260.2035 14.24064299349888 ISS 1 25544U 98067A 24186.63628924 .00012374 00000-0 22753-3 0 9990 2 25544 51.6401 228.8735 0010264 30.3735 112.2172 15.49569153461250 NO-44 1 26931U 01043C 24186.67646882 .00000255 00000-0 12761-3 0 9999 2 26931 67.0516 286.3697 0007390 277.2691 82.7571 14.31268006188617 SO-50 1 27607U 02058C 24186.37448695 .00001857 00000-0 26778-3 0 9998 2 27607 64.5533 168.7149 0025910 103.5118 256.8875 14.79088537158863 CO-55 1 27844U 03031E 24186.59516272 .00000527 00000-0 25172-3 0 9994 2 27844 98.6764 193.3813 0011067 93.9544 266.2900 14.23299740 90290 CO-57 1 27848U 03031J 24186.46584807 .00000443 00000-0 21711-3 0 9995 2 27848 98.6794 193.4887 0010853 108.4582 251.7777 14.22735803 89995 RS-22 1 27939U 03042A 24186.85830332 .00001799 00000-0 30802-3 0 9994 2 27939 98.2926 343.3393 0012061 10.5769 136.3197 14.70049399110877 NOAA-18 1 28654U 05018A 24186.83699941 .00000276 00000-0 17056-3 0 9996 2 28654 98.8744 263.6557 0014344 17.9222 342.2453 14.13245104985752 CO-58 1 28895U 05043F 24186.62406718 .00002186 00000-0 39117-3 0 9990 2 28895 98.2033 322.4778 0014465 304.3927 55.5909 14.67826470997014 CO-65 1 32785U 08021C 24186.53065163 .00005745 00000-0 50395-3 0 9992 2 32785 97.7557 151.7154 0008672 267.6863 92.3366 14.96995502878149 AAUSAT2 1 32788U 08021F 24186.44703845 .00020086 00000-0 97926-3 0 9997 2 32788 97.5934 166.7463 0008110 109.9785 250.2323 15.18329399880945 CO-66 1 32791U 08021J 24186.89698948 .00009322 00000-0 67386-3 0 9994 2 32791 97.6897 157.9729 0003424 227.5603 132.5333 15.04263725879265 RS-30 1 32953U 08025A 24186.77748844 .00000030 00000-0 14335-3 0 9999 2 32953 82.5025 78.5462 0020606 66.7479 293.5767 12.43143060731319 PRISM 1 33493U 09002B 24186.10536756 .00022534 00000-0 10375-2 0 9991 2 33493 98.2039 235.1963 0012804 183.9766 176.1368 15.20255823841614 NOAA-19 1 33591U 09005A 24186.79088762 .00000264 00000-0 16578-3 0 9995 2 33591 99.0462 242.7758 0012945 240.2112 119.7773 14.13039899794115 SRMSAT 1 37841U 11058D 24186.31939659 .00000479 00000-0 11741-3 0 9991 2 37841 19.9731 53.1582 0011742 282.8446 234.6880 14.11134991656987 RS-40 1 38735U 12041C 24186.89105959 .00000031 00000-0 15178-3 0 9990 2 38735 82.4760 158.8480 0017173 175.7450 184.3778 12.42611360541461 ZACUBE-1 1 39417U 13066B 24186.58795653 .00004869 00000-0 50471-3 0 9996 2 39417 97.7343 142.1684 0052307 102.5957 258.1117 14.89442374574176 Delfi-N3xt 1 39428U 13066N 24186.32553623 .00009476 00000-0 11968-2 0 9995 2 39428 97.8384 104.2077 0101650 34.1252 326.6438 14.78467421568621 GOMX-1 1 39430U 13066Q 24186.88537331 .00002266 00000-0 38136-3 0 9994 2 39430 97.7307 60.1989 0139294 196.0018 163.6764 14.64281995565637 LO-74 1 39440U 13066AA 24186.84887220 .00003930 00000-0 46431-3 0 9992 2 39440 97.8131 130.1405 0068523 215.2411 144.4263 14.83561089572154 AO-73 1 39444U 13066AE 24186.44623826 .00007682 00000-0 73781-3 0 9998 2 39444 97.7199 145.1972 0049991 84.1469 276.5445 14.92379077572681 SPROUT 1 39770U 14029E 24186.86931503 .00246917 00000-0 35586-2 0 9996 2 39770 98.0061 341.4595 0004617 228.3375 131.7483 15.55135993550396 DTUSAT-2 1 40030U 14033W 24186.84490405 .00005903 00000-0 49559-3 0 9995 2 40030 98.0086 139.7575 0011310 92.3437 267.9080 14.98689806545859 EO-80 1 40032U 14033Y 24186.41265732 .00007033 00000-0 58876-3 0 9991 2 40032 98.0059 139.3189 0012066 99.7106 260.5479 14.98719821545257 XW-2C 1 40906U 15049H 24186.82419555 .00031775 00000-0 70291-3 0 9993 2 40906 97.4763 204.1057 0006811 219.5530 140.5222 15.43734857487199 XW-2D 1 40907U 15049J 24186.81858851 .00051686 00000-0 85863-3 0 9993 2 40907 97.4706 206.8115 0006660 199.0223 161.0781 15.51906820487439 LILACSAT-2 1 40908U 15049K 24186.82688547 .00009886 00000-0 37806-3 0 9997 2 40908 97.5225 195.6661 0010149 290.0414 69.9731 15.26750914486184 XW-2B 1 40911U 15049N 24186.78950255 .00048741 00000-0 83483-3 0 9999 2 40911 97.4678 206.8497 0006354 201.7161 158.3822 15.51062885487290 IO-86 1 40931U 15052B 24180.14795698 .00001574 00000-0 12542-3 0 9998 2 40931 5.9997 274.4192 0013395 238.9714 120.9097 14.77898591473081 ChubuSat-2 1 41338U 16012B 24186.55221458 .00005339 00000-0 32747-3 0 9998 2 41338 31.0011 279.0301 0011313 51.3799 308.7850 15.08543812460224 ChubuSat-3 1 41339U 16012C 24186.63455357 .00004845 00000-0 30166-3 0 9999 2 41339 31.0079 277.0922 0011340 56.7391 303.4332 15.07942568460219 Horyu-4 1 41340U 16012D 24186.44695422 .00010418 00000-0 50923-3 0 9995 2 41340 31.0008 223.0787 0010185 150.4342 209.6876 15.16903088460772 Lapan A3 1 41603U 16040E 24186.82302393 .00004060 00000-0 16302-3 0 9991 2 41603 97.1409 199.7448 0013212 46.2388 313.9942 15.25419888445913 Pratham 1 41783U 16059A 24186.54833765 .00001148 00000-0 22151-3 0 9994 2 41783 97.8355 205.0697 0031565 327.8777 32.0503 14.64955914415081 CAS-2T 1 41847U 16066G 24186.52504666 .00002854 00000-0 42066-3 0 9998 2 41847 98.4605 257.6955 0354802 125.0919 238.4084 14.41369991401995 CAS-4B 1 42759U 17034B 24186.88563142 .00017217 00000-0 60843-3 0 9992 2 42759 43.0176 126.4842 0010078 108.2644 251.9306 15.28877146390117 CAS-4A 1 42761U 17034D 24186.88567852 .00019055 00000-0 66993-3 0 9991 2 42761 43.0214 124.8218 0009162 122.6870 237.4867 15.28996618390123 Aalto 1 1 42775U 17036L 24186.87012435 .00136844 00000-0 10130-2 0 9996 2 42775 97.0996 216.7796 0007776 137.9708 222.2154 15.72480579391882 D-SAT 1 42794U 17036AF 24186.46906656 .00007521 00000-0 52040-3 0 9995 2 42794 97.4810 167.7331 0111338 90.4334 270.9649 15.00982669383316 TechnoSat 1 42829U 17042E 24186.83225689 .00003834 00000-0 33928-3 0 9999 2 42829 97.3831 6.9137 0012606 20.6031 339.5698 14.96774779379813 AO-91 1 43017U 17073E 24186.60733971 .00007395 00000-0 45912-3 0 9998 2 43017 97.5765 61.4865 0207927 235.1564 122.9948 14.93729931358266 TianYi 2 1 43155U 18008A 24186.84693924 .00159116 00000-0 15016-2 0 9999 2 43155 97.2321 241.2861 0001261 13.3701 346.7593 15.66532647357662 Zhou Enlai 1 43156U 18008B 24186.70341549 .00635566 16442-3 18999-2 0 9999 2 43156 97.2287 243.7958 0006571 243.3248 116.7354 15.92334291357729 TianYi 6 1 43158U 18008D 24186.70707176 .00057391 00000-0 10244-2 0 9992 2 43158 97.2537 235.3834 0004904 48.6570 311.5102 15.49861525357184 S-Net D 1 43186U 18014G 24186.60932453 .00005954 00000-0 42569-3 0 9991 2 43186 97.5903 88.1451 0009216 313.4239 46.6219 15.04798864351129 S-Net B 1 43187U 18014H 24186.61166399 .00006034 00000-0 43143-3 0 9990 2 43187 97.5906 88.0984 0009972 307.4079 52.6239 15.04790652351123 S-Net A 1 43188U 18014J 24186.61045712 .00005980 00000-0 42749-3 0 9996 2 43188 97.5913 88.2112 0009851 308.4330 51.6011 15.04800002351122 S-Net C 1 43189U 18014K 24186.61376057 .00005972 00000-0 42686-3 0 9997 2 43189 97.5925 88.1658 0011531 299.3893 60.6182 15.04791639349671 Ten-Koh 1 43677U 18084G 24186.46353307 .00002764 00000-0 25044-3 0 9997 2 43677 98.0647 340.5040 0013141 325.0429 34.9927 14.96177536309302 PO-101 1 43678U 18084H 24186.87322395 .00001945 00000-0 18166-3 0 9993 2 43678 98.0735 345.3806 0008473 341.9065 18.1852 14.95393177309568 QO-100 1 43700U 18090A 24186.86126230 .00000142 00000-0 00000+0 0 9997 2 43700 0.0156 64.7117 0001885 83.9591 110.5071 1.00272700 20771 MinXSS-2 1 43758U 18099A 24186.60375860 .00010402 00000-0 65140-3 0 9996 2 43758 97.5531 248.6988 0015414 255.2744 104.6777 15.09466278305411 AO-95 1 43770U 18099N 24186.44751151 .00008204 00000-0 56385-3 0 9991 2 43770 97.5450 243.9263 0012379 305.5412 54.4661 15.06132424305163 RANGE-B 1 43772U 18099Q 24186.61815793 .00011458 00000-0 70012-3 0 9993 2 43772 97.5238 247.6298 0005309 192.4246 167.6853 15.10421254305359 RANGE-A 1 43773U 18099R 24186.55379210 .00005258 00000-0 39884-3 0 9999 2 43773 97.5024 239.2316 0011924 271.2640 88.7220 15.02591975305041 MOVE-II 1 43780U 18099Y 24186.64652758 .00019408 00000-0 99501-3 0 9992 2 43780 97.5213 249.4794 0005068 267.8692 92.1960 15.16590778305575 SNUSat 2 1 43782U 18099AA 24186.60501127 .00006288 00000-0 44359-3 0 9996 2 43782 97.5131 243.1388 0013288 238.0129 121.9806 15.05237945305194 SnugLite 1 43784U 18099AC 24186.40980482 .00006991 00000-0 47787-3 0 9990 2 43784 97.4949 242.2796 0003060 232.2749 127.8201 15.06444085305231 ITASat 1 1 43786U 18099AE 24186.61935535 .00005981 00000-0 42989-3 0 9991 2 43786 97.5105 243.3932 0015221 294.6361 65.3279 15.04536054305198 EAGLET 1 1 43790U 18099AJ 24186.68320398 .00004427 00000-0 33263-3 0 9997 2 43790 97.5296 243.9440 0011244 268.6774 91.3163 15.03042636304900 ESEO 1 43792U 18099AL 24186.61954600 .00002430 00000-0 20114-3 0 9994 2 43792 97.5135 240.6335 0010697 259.8582 100.1436 14.99752151304817 CSIM 1 43793U 18099AM 24186.57123976 .00018717 00000-0 96566-3 0 9993 2 43793 97.5292 251.1401 0011378 244.8431 115.1622 15.16332067305417 JO-97 1 43803U 18099AX 24186.42396110 .00008830 00000-0 58113-3 0 9992 2 43803 97.5202 244.7129 0008601 235.7016 124.3398 15.07749497305295 Suomi 100 1 43804U 18099AY 24186.61691072 .00007164 00000-0 48204-3 0 9998 2 43804 97.5273 244.6973 0014420 237.1191 122.8649 15.06943685305304 ISAT 1 43879U 18111D 24186.29955532 .00011776 00000-0 70812-3 0 9997 2 43879 97.6183 91.9241 0011089 305.5160 54.5034 15.10964494302001 UWE-4 1 43880U 18111E 24186.56174268 .00010685 00000-0 65993-3 0 9990 2 43880 97.6104 92.1608 0014907 313.5977 46.4014 15.09972046302056 Sparrow 1 43881U 18111F 24186.52971269 .00011451 00000-0 67911-3 0 9997 2 43881 97.6277 94.0878 0009378 354.3098 5.8023 15.11487574302106 Prox-1 1 44339U 19036A 24186.45438803 .00010359 00000-0 17588-2 0 9997 2 44339 23.9995 114.3073 0008908 193.3239 166.7021 14.67237565267785 SONATE 1 44400U 19038Q 24186.54838208 .00020875 00000-0 61421-3 0 9991 2 44400 97.7113 181.4272 0017052 51.8221 308.4554 15.34963705276749 Taurus 1 1 44530U 19059C 24186.83623569 .00006457 00000-0 14877-2 0 9994 2 44530 98.5776 307.4739 0010551 6.0094 354.1228 14.55647219254330 Duchifat 3 1 44854U 19089C 24186.70203052 .00015749 00000-0 78130-3 0 9990 2 44854 36.9577 302.6280 0005778 238.9399 121.0781 15.17050781250861 TO-108 1 44881U 19093C 24186.84405565 .00001411 00000-0 17645-3 0 9998 2 44881 97.8282 263.2866 0012945 264.3317 95.6421 14.83813735245666 FloripaSat 1 1 44885U 19093G 24186.80619373 .00004824 00000-0 49924-3 0 9998 2 44885 97.8416 269.2479 0011313 253.9200 106.0772 14.90491803245996 RS-44 1 44909U 19096E 24186.46813523 .00000008 00000-0 -10871-4 0 9994 2 44909 82.5214 93.2959 0217926 11.1162 349.4642 12.79731070211188 BY70-2 1 45857U 20042B 24186.80995024 .00185459 00000-0 49249-2 0 9997 2 45857 97.9060 281.5927 0009583 197.0090 163.0833 15.37488899217250 UPMSat 2 1 46276U 20061E 24186.77254094 .00015916 00000-0 47604-3 0 9999 2 46276 97.2970 252.8215 0002490 94.1153 266.0375 15.34638404212871 AmicalSat 1 46287U 20061R 24186.22212673 .00033199 00000-0 87110-3 0 9997 2 46287 97.3487 253.5024 0003345 150.2354 209.9082 15.38574006212186 SALSAT 1 46495U 20068K 24186.39976331 .00005859 00000-0 33134-3 0 9990 2 46495 97.8163 146.1280 0011897 251.7511 108.2425 15.13425136206915 UVSQ-SAT 1 47438U 21006AB 24186.15583186 .00057446 00000-0 10136-2 0 9992 2 47438 97.3248 246.8938 0007805 150.1503 210.0195 15.50170231191369 YUSAT 1 1 47439U 21006AC 24186.21922765 .00316931 00000-0 16618-2 0 9998 2 47439 97.3157 252.4503 0006456 186.9981 173.1197 15.79905864191739 SOMP 2b 1 47445U 21006AJ 24186.71002358 .00046798 00000-0 93064-3 0 9999 2 47445 97.3217 245.6597 0007875 154.0253 206.1393 15.46777717191366 IDEASSat 1 47458U 21006AX 24186.13523230 .00040648 00000-0 89805-3 0 9992 2 47458 97.3327 245.5584 0007907 157.1013 203.0589 15.43711738191205 CubeSX-Sirius-HSE 1 47951U 21022V 24186.81287494 .00019509 00000-0 74773-3 0 9992 2 47951 97.4592 85.1396 0016387 79.3509 280.9573 15.26430465181262 CubeSX-HSE 1 47952U 21022W 24186.76495276 .00020226 00000-0 77217-3 0 9990 2 47952 97.4593 85.1865 0016324 78.9248 281.3826 15.26554194181263 KSU-Cubesat 1 47954U 21022Y 24186.65299141 .00025071 00000-0 86970-3 0 9992 2 47954 97.4603 86.4766 0015224 75.6837 284.6092 15.29676947181059 GRBAlpha 1 47959U 21022AD 24186.85925779 .00021675 00000-0 82466-3 0 9994 2 47959 97.4595 85.4336 0016137 78.8119 281.4932 15.26656542180107 Orbicraft-Zorkiy 1 47960U 21022AE 24186.82989059 .00025212 00000-0 90064-3 0 9998 2 47960 97.4637 86.7478 0015306 77.0021 283.2926 15.28715998180855 STECCO 1 47962U 21022AG 24186.83704007 .00200395 00000-0 19082-2 0 9996 2 47962 97.4558 97.3923 0007670 84.2101 276.0033 15.66148555180889 MO-110 1 47964U 21022AJ 24186.73123576 .00353684 00000-0 20438-2 0 9990 2 47964 97.4554 99.4216 0007717 102.3025 257.9105 15.77621869180990 TUBIN 1 48900U 21059X 24186.84037324 .00016334 00000-0 55031-3 0 9994 2 48900 97.6473 331.9979 0006849 33.1043 327.0625 15.30811588167628 LEDSAT 1 49069U 21073D 24186.76990045 .00016026 00000-0 63290-3 0 9990 2 49069 97.4375 257.7894 0018559 217.3935 142.6013 15.25439320159135 CUTE 1 49263U 21088D 24186.57632409 .00017972 00000-0 82380-3 0 9990 2 49263 97.4972 252.4605 0013712 28.1680 332.0294 15.20433904152289 TeikyoSat 4 1 49396U 21102B 24186.87084627 .00003377 00000-0 24516-3 0 9991 2 49396 97.4588 231.2370 0012767 210.6233 149.4249 15.04482640145414 Z-Sat 1 49399U 21102E 24186.85037998 .00004624 00000-0 29810-3 0 9999 2 49399 97.4304 232.8112 0020086 192.0978 167.9771 15.08624526145652 KOSEN 1 1 49402U 21102H 24186.85522743 .00006919 00000-0 40758-3 0 9994 2 49402 97.4229 234.3192 0019200 175.3486 184.7927 15.11757036145817 HO-113 1 50466U 21131B 24186.84830776 .00000824 00000-0 27743-3 0 9993 2 50466 98.5287 271.8356 0005339 79.9427 280.2363 14.39698214132548 Tevel-3 1 50988U 22002E 24186.25178030 .00264816 00000-0 16508-2 0 9992 2 50988 97.3727 263.1018 0006156 238.2772 121.7894 15.76144083137739 Tevel-8 1 50989U 22002F 24186.36011959 .00242597 00000-0 15343-2 0 9999 2 50989 97.3751 263.3080 0006143 238.6964 121.3700 15.75872575137747 Tevel-5 1 50998U 22002Q 24186.56300985 .00534642 11148-3 17815-2 0 9990 2 50998 97.3676 265.2024 0009554 245.5194 114.5083 15.90153195137906 Tevel-6 1 50999U 22002R 24186.32860163 .00500856 96169-4 17621-2 0 9996 2 50999 97.3687 264.8819 0009412 244.9100 115.1196 15.89070159137862 Tevel-1 1 51013U 22002AF 24186.28753728 .00255677 00000-0 16239-2 0 9994 2 51013 97.3724 262.9780 0006438 236.7519 123.3130 15.75737000137731 IRIS-A 1 51044U 22002BN 24186.42903404 .00018874 00000-0 60577-3 0 9993 2 51044 97.3843 252.8838 0004562 342.0195 18.0885 15.32349033137067 Tevel-7 1 51062U 22002CG 24186.34199423 .00262427 00000-0 16282-2 0 9990 2 51062 97.3743 263.2713 0006481 236.5180 123.5466 15.76256457137744 Tevel-4 1 51063U 22002CH 24186.84317274 .00275344 00000-0 17671-2 0 9997 2 51063 97.3749 263.6615 0006523 236.8104 123.2536 15.75442666137813 Tevel-2 1 51069U 22002CP 24186.31198636 .00256714 00000-0 15972-2 0 9996 2 51069 97.3722 263.1342 0006218 237.3957 122.6709 15.76209951137741 OreSat0 1 52017U 22026K 24186.77655266 .00081961 00000-0 11447-2 0 9996 2 52017 97.4920 201.8906 0014630 146.0014 214.2181 15.56466582128440 Planetum 1 1 52738U 22057G 24186.33008318 .00043204 00000-0 97731-3 0 9991 2 52738 97.5673 313.1105 0004981 100.8064 259.3744 15.43015246117216 Foresail-1 1 52766U 22057AL 24186.62590634 .00019534 00000-0 61789-3 0 9994 2 52766 97.5844 312.5535 0009868 74.5839 285.6492 15.32776030117128 SNUGLITE 2 1 52899U 22065F 24186.38389590 .00001664 00000-0 34920-3 0 9992 2 52899 98.1214 327.1978 0009018 99.5173 260.7047 14.60906952106778 IO-117 1 53106U 22080B 24179.39627855 -.00000003 00000-0 00000-0 0 9999 2 53106 70.1314 188.9743 0007566 105.0209 255.1288 6.42557731 45925 SelfieSat 1 53951U 22057BC 24186.36413936 .00104734 00000-0 13068-2 0 9994 2 53951 97.5678 317.3957 0002440 110.0448 250.1070 15.59523470117465 FO-118 1 54684U 22167C 24186.85063926 .00029131 00000-0 96363-3 0 9991 2 54684 97.6064 332.1100 0010223 88.0702 272.1709 15.31250614 87005 SSS-2B 1 56184U 23054G 24186.80772160 .00040077 00000-0 92583-3 0 9998 2 56184 97.3676 84.9625 0009564 107.6861 252.5431 15.42366517 68850 CIRBE 1 56188U 23054L 24186.67953738 .00069035 00000-0 10075-2 0 9999 2 56188 97.3605 87.0619 0007969 106.0828 254.1305 15.55409363 69003 INSPIRE-Sat 7 1 56211U 23054AK 24186.25886452 .00091815 00000-0 12186-2 0 9994 2 56211 97.3612 87.9534 0010131 88.4288 271.8128 15.57869923 69015 RoseyCubesat 1 1 56212U 23054AL 24186.84413940 .00135115 00000-0 14299-2 0 9997 2 56212 97.3625 89.4969 0010254 89.4078 270.8355 15.63651225 69161 SO-120 1 56992U 23084BU 24186.79581016 .00026664 00000-0 93812-3 0 9996 2 56992 97.5332 306.3585 0010767 321.6611 38.3862 15.29261350 58875 MRC-100 1 56993U 23084BV 24186.87216307 .00036323 00000-0 11883-2 0 9994 2 56993 97.5333 306.8952 0010166 318.4258 41.6209 15.31560439 58925 UmKA 1 (RS40S) 1 57172U 23091G 24186.85317768 .00005774 00000-0 37994-3 0 9991 2 57172 97.6107 238.7213 0018018 65.1682 295.1418 15.07811183 56158 CubeBel-2 (EU11S) 1 57175U 23091K 24186.86136653 .00008167 00000-0 52502-3 0 9998 2 57175 97.6111 238.6987 0016635 76.8824 283.4260 15.08563198 56159 VERONIKA 1 58261U 23174F 24186.75486952 .00019158 00000-0 84289-3 0 9994 2 58261 97.4607 261.3830 0012839 176.2249 183.9086 15.21836462 36387 KAFASAT 1 58317U 23174BP 24186.79725351 .00022724 00000-0 90161-3 0 9998 2 58317 97.4552 262.0727 0012194 155.1976 204.9850 15.25301702 36446 ENSO 1 58470U 23185J 24186.86824322 .00017822 00000-0 73925-3 0 9998 2 58470 97.4264 253.4087 0012260 209.7298 150.3244 15.23857725 32835 EIRSAT-1 1 58472U 23185L 24186.83450517 .00016782 00000-0 68392-3 0 9994 2 58472 97.4259 253.4325 0011852 209.8162 150.2401 15.24472013 32831 SO-121 1 58567U 23174CY 24186.18523902 .00050753 00000-0 16511-2 0 9995 2 58567 97.4540 261.9847 0013425 167.8072 192.3497 15.31622235 36380 SONATE-2 1 59112U 24043Q 24186.62864444 .00011110 00000-0 53254-3 0 9996 2 59112 97.4803 310.2849 0014155 229.8388 130.1607 15.18997103 18454 KASHIWA 1 59508U 98067WH 24186.80952754 .00201522 00000-0 13612-2 0 9995 2 59508 51.6270 221.2964 0013268 16.8040 343.3396 15.73809040 13265 OBJECT A 1 60203U 24126A 24186.55623994 -.00000079 00000-0 00000+0 0 9996 2 60203 97.3158 40.6714 0053031 256.1787 191.8334 15.26459174 54 OBJECT B 1 60204U 24126B 24186.55798365 -.00000069 00000-0 00000+0 0 9991 2 60204 97.3219 39.4368 0020659 251.3829 199.4310 15.20834757 54 OBJECT C 1 60205U 24126C 24186.55765001 -.00000069 00000-0 00000+0 0 9993 2 60205 97.3243 39.4465 0021248 251.4901 197.0698 15.20461757 56 OBJECT D 1 60206U 24126D 24186.55738278 -.00000069 00000-0 00000+0 0 9990 2 60206 97.3232 39.4460 0025477 251.2826 194.9222 15.19785027 58 OBJECT E 1 60207U 24126E 24186.55833862 -.00000069 00000-0 00000+0 0 9996 2 60207 97.3235 39.4433 0026063 254.9561 196.2828 15.19645968 56 OBJECT F 1 60208U 24126F 24186.55740784 -.00000069 00000-0 00000+0 0 9997 2 60208 97.3249 39.4483 0026249 255.6498 190.2366 15.19429788 62 MESAT1 1 60209U 24126G 24186.55793875 -.00000068 00000-0 00000+0 0 9996 2 60209 97.3192 39.4360 0024944 264.5227 183.7607 15.19026686 57 OBJECT H 1 60210U 24126H 24186.62212088 -.00000068 00000-0 00000+0 0 9998 2 60210 97.3238 39.5134 0026178 260.2378 178.9600 15.19130334 67 /EX